Wetterdaten: Montag, 26.10.2015
Datum Zeit Auen-Temp. Temp gefhlt Luftfeuchte Luftdruck Regen Wind Richtung Richtung Taupunkt Windben
26.10.2015 00:00 7,5 C 7,5 C 90 % 1022,5 hPa 0,0 mm 0,0 km/h (0 Bft) NO 45 6,0 C 0,0 km/h (0 Bft)
26.10.2015 00:05 7,5 C 7,7 C 86 % 1022,5 hPa 0,0 mm 0,3 km/h (0 Bft) SO 135 5,3 C 0,0 km/h (0 Bft)
26.10.2015 00:10 7,7 C 7,8 C 86 % 1022,2 hPa 0,0 mm 0,3 km/h (0 Bft) O-NO 67 5,5 C 0,0 km/h (0 Bft)
26.10.2015 00:15 7,8 C 7,8 C 90 % 1022,2 hPa 0,0 mm 0,5 km/h (0 Bft) O-SO 112 6,3 C 3,1 km/h (1 Bft)
26.10.2015 00:20 7,8 C 7,8 C 90 % 1022,2 hPa 0,0 mm 0,8 km/h (0 Bft) NO 45 6,3 C 0,0 km/h (0 Bft)
26.10.2015 00:25 7,8 C 7,8 C 90 % 1022,2 hPa 0,0 mm 0,5 km/h (0 Bft) O-NO 67 6,3 C 2,8 km/h (1 Bft)
26.10.2015 00:30 7,7 C 7,7 C 90 % 1022,1 hPa 0,0 mm 0,0 km/h (0 Bft) NO 45 6,2 C 0,0 km/h (0 Bft)
26.10.2015 00:35 7,6 C 7,6 C 90 % 1022,1 hPa 0,0 mm 0,8 km/h (0 Bft) N-NO 22 6,1 C 3,4 km/h (1 Bft)
26.10.2015 00:40 7,5 C 7,5 C 90 % 1022,1 hPa 0,0 mm 0,8 km/h (0 Bft) O-NO 67 6,0 C 4,9 km/h (1 Bft)
26.10.2015 00:45 7,4 C 7,4 C 90 % 1022,1 hPa 0,0 mm 0,3 km/h (0 Bft) N-NO 22 5,9 C 0,0 km/h (0 Bft)
26.10.2015 00:50 7,3 C 7,3 C 90 % 1022,2 hPa 0,0 mm 0,0 km/h (0 Bft) N-NO 22 5,8 C 0,0 km/h (0 Bft)
26.10.2015 00:55 7,0 C 7,1 C 90 % 1022,2 hPa 0,0 mm 0,0 km/h (0 Bft) N-NO 22 5,5 C 0,0 km/h (0 Bft)
26.10.2015 01:00 7,0 C 7,0 C 90 % 1022,2 hPa 0,0 mm 0,0 km/h (0 Bft) N-NO 22 5,5 C 0,0 km/h (0 Bft)
26.10.2015 01:05 7,0 C 7,0 C 90 % 1022,2 hPa 0,0 mm 0,0 km/h (0 Bft) N-NO 22 5,5 C 0,0 km/h (0 Bft)
26.10.2015 01:10 7,2 C 7,1 C 90 % 1021,9 hPa 0,0 mm 0,0 km/h (0 Bft) N-NO 22 5,7 C 0,0 km/h (0 Bft)
26.10.2015 01:15 6,9 C 6,9 C 90 % 1021,9 hPa 0,0 mm 0,0 km/h (0 Bft) O 90 5,4 C 0,0 km/h (0 Bft)
26.10.2015 01:20 6,7 C 6,7 C 90 % 1021,9 hPa 0,0 mm 0,0 km/h (0 Bft) O 90 5,2 C 0,0 km/h (0 Bft)
26.10.2015 01:25 6,5 C 6,4 C 90 % 1021,9 hPa 0,0 mm 0,0 km/h (0 Bft) O 90 5,0 C 0,0 km/h (0 Bft)
26.10.2015 01:30 6,4 C 6,2 C 90 % 1021,8 hPa 0,0 mm 0,0 km/h (0 Bft) O 90 4,9 C 0,0 km/h (0 Bft)
26.10.2015 01:32 6,4 C 6,2 C 90 % 1021,8 hPa 0,0 mm 0,0 km/h (0 Bft) O 90 4,9 C 0,0 km/h (0 Bft)
26.10.2015 01:35 6,6 C 6,4 C 90 % 1021,8 hPa 0,0 mm 0,0 km/h (0 Bft) O 90 5,1 C 0,0 km/h (0 Bft)
26.10.2015 01:40 6,7 C 6,5 C 90 % 1021,8 hPa 0,0 mm 0,0 km/h (0 Bft) S 180 5,2 C 0,0 km/h (0 Bft)
26.10.2015 01:45 6,9 C 6,9 C 87 % 1021,8 hPa 0,0 mm 0,0 km/h (0 Bft) S-SO 157 4,9 C 0,0 km/h (0 Bft)
26.10.2015 01:50 7,0 C 6,9 C 90 % 1021,8 hPa 0,0 mm 0,3 km/h (0 Bft) O-NO 67 5,5 C 0,0 km/h (0 Bft)
26.10.2015 01:55 7,2 C 7,2 C 87 % 1021,8 hPa 0,0 mm 2,6 km/h (1 Bft) NO 45 5,2 C 6,7 km/h (2 Bft)
26.10.2015 02:00 7,2 C 7,2 C 91 % 1021,8 hPa 0,0 mm 3,4 km/h (1 Bft) NO 45 5,8 C 7,3 km/h (2 Bft)
26.10.2015 02:05 7,1 C 7,1 C 91 % 1021,8 hPa 0,0 mm 2,1 km/h (1 Bft) NO 45 5,7 C 0,0 km/h (0 Bft)
26.10.2015 02:10 6,9 C 7,0 C 91 % 1021,3 hPa 0,0 mm 0,8 km/h (0 Bft) NO 45 5,5 C 0,0 km/h (0 Bft)
26.10.2015 02:15 6,7 C 6,7 C 91 % 1021,3 hPa 0,0 mm 0,0 km/h (0 Bft) O-NO 67 5,3 C 0,0 km/h (0 Bft)
26.10.2015 02:20 6,7 C 6,6 C 91 % 1021,3 hPa 0,0 mm 0,0 km/h (0 Bft) O-NO 67 5,3 C 0,0 km/h (0 Bft)
26.10.2015 02:25 6,5 C 6,5 C 91 % 1021,3 hPa 0,0 mm 0,0 km/h (0 Bft) SO 135 5,1 C 0,0 km/h (0 Bft)
26.10.2015 02:30 6,5 C 6,5 C 91 % 1020,9 hPa 0,0 mm 0,0 km/h (0 Bft) NO 45 5,1 C 0,0 km/h (0 Bft)
26.10.2015 02:35 6,1 C 6,1 C 91 % 1020,9 hPa 0,0 mm 0,0 km/h (0 Bft) O-SO 112 4,7 C 0,0 km/h (0 Bft)
26.10.2015 02:40 6,0 C 5,9 C 91 % 1020,9 hPa 0,0 mm 0,0 km/h (0 Bft) SO 135 4,6 C 0,0 km/h (0 Bft)
26.10.2015 02:45 5,9 C 5,7 C 92 % 1020,9 hPa 0,0 mm 0,0 km/h (0 Bft) O-SO 112 4,7 C 0,0 km/h (0 Bft)
26.10.2015 02:50 5,7 C 5,5 C 92 % 1020,8 hPa 0,0 mm 0,0 km/h (0 Bft) O-SO 112 4,5 C 0,0 km/h (0 Bft)
26.10.2015 02:55 5,5 C 5,3 C 92 % 1020,8 hPa 0,0 mm 0,0 km/h (0 Bft) O-SO 112 4,3 C 0,0 km/h (0 Bft)
26.10.2015 03:00 5,3 C 5,2 C 92 % 1020,8 hPa 0,0 mm 0,0 km/h (0 Bft) O-SO 112 4,1 C 0,0 km/h (0 Bft)
26.10.2015 03:05 5,4 C 5,3 C 92 % 1020,8 hPa 0,0 mm 0,0 km/h (0 Bft) S-SO 157 4,2 C 0,0 km/h (0 Bft)
26.10.2015 03:10 5,4 C 5,3 C 92 % 1020,5 hPa 0,0 mm 0,0 km/h (0 Bft) SW 225 4,2 C 0,0 km/h (0 Bft)
26.10.2015 03:15 5,5 C 5,4 C 92 % 1020,5 hPa 0,0 mm 0,0 km/h (0 Bft) S-SW 202 4,3 C 0,0 km/h (0 Bft)
26.10.2015 03:20 5,6 C 5,6 C 88 % 1020,5 hPa 0,0 mm 0,0 km/h (0 Bft) S-SW 202 3,8 C 0,0 km/h (0 Bft)
26.10.2015 03:25 5,8 C 5,9 C 88 % 1020,5 hPa 0,0 mm 0,0 km/h (0 Bft) SW 225 4,0 C 0,0 km/h (0 Bft)
26.10.2015 03:30 5,9 C 6,0 C 88 % 1020,2 hPa 0,0 mm 0,0 km/h (0 Bft) SW 225 4,1 C 0,0 km/h (0 Bft)
26.10.2015 03:35 5,9 C 6,0 C 88 % 1020,2 hPa 0,0 mm 0,0 km/h (0 Bft) SW 225 4,1 C 0,0 km/h (0 Bft)
26.10.2015 03:40 6,0 C 6,1 C 91 % 1020,2 hPa 0,0 mm 0,0 km/h (0 Bft) SW 225 4,6 C 0,0 km/h (0 Bft)
26.10.2015 03:45 6,1 C 6,2 C 87 % 1020,2 hPa 0,0 mm 0,0 km/h (0 Bft) SW 225 4,1 C 0,0 km/h (0 Bft)
26.10.2015 03:50 6,2 C 6,2 C 91 % 1020,2 hPa 0,0 mm 0,0 km/h (0 Bft) SW 225 4,8 C 0,0 km/h (0 Bft)
26.10.2015 03:55 6,2 C 6,3 C 92 % 1020,2 hPa 0,0 mm 0,0 km/h (0 Bft) SW 225 5,0 C 0,0 km/h (0 Bft)
26.10.2015 04:00 6,2 C 6,3 C 88 % 1020,2 hPa 0,0 mm 0,0 km/h (0 Bft) N-NO 22 4,4 C 0,0 km/h (0 Bft)
26.10.2015 04:05 6,2 C 6,3 C 88 % 1020,2 hPa 0,0 mm 0,0 km/h (0 Bft) N-NW 337 4,4 C 0,0 km/h (0 Bft)
26.10.2015 04:10 6,2 C 6,3 C 92 % 1020,0 hPa 0,0 mm 0,0 km/h (0 Bft) W-NW 292 5,0 C 0,0 km/h (0 Bft)
26.10.2015 04:15 6,3 C 6,3 C 92 % 1020,0 hPa 0,0 mm 0,0 km/h (0 Bft) W 270 5,1 C 0,0 km/h (0 Bft)
26.10.2015 04:20 6,3 C 6,4 C 88 % 1020,0 hPa 0,0 mm 0,0 km/h (0 Bft) W 270 4,5 C 0,0 km/h (0 Bft)
26.10.2015 04:25 6,4 C 6,4 C 92 % 1020,0 hPa 0,0 mm 0,3 km/h (0 Bft) SW 225 5,2 C 2,6 km/h (1 Bft)
26.10.2015 04:30 6,4 C 6,4 C 92 % 1019,8 hPa 0,0 mm 0,3 km/h (0 Bft) W-NW 292 5,2 C 0,0 km/h (0 Bft)
26.10.2015 04:35 6,4 C 6,4 C 92 % 1019,8 hPa 0,0 mm 0,3 km/h (0 Bft) NW 315 5,2 C 0,0 km/h (0 Bft)
26.10.2015 04:40 6,4 C 6,4 C 92 % 1019,8 hPa 0,0 mm 0,3 km/h (0 Bft) W 270 5,2 C 0,0 km/h (0 Bft)
26.10.2015 04:45 6,3 C 6,3 C 92 % 1019,8 hPa 0,0 mm 0,3 km/h (0 Bft) W-SW 247 5,1 C 0,0 km/h (0 Bft)
26.10.2015 04:50 6,3 C 6,3 C 92 % 1019,8 hPa 0,0 mm 0,0 km/h (0 Bft) W-SW 247 5,1 C 0,0 km/h (0 Bft)
26.10.2015 04:55 6,2 C 6,2 C 92 % 1019,8 hPa 0,0 mm 2,3 km/h (1 Bft) W 270 5,0 C 3,1 km/h (1 Bft)
26.10.2015 05:00 6,1 C 6,1 C 92 % 1019,8 hPa 0,0 mm 2,8 km/h (1 Bft) W-NW 292 4,9 C 4,1 km/h (1 Bft)
26.10.2015 05:05 6,1 C 6,1 C 92 % 1019,8 hPa 0,0 mm 1,8 km/h (1 Bft) W-NW 292 4,9 C 0,0 km/h (0 Bft)
26.10.2015 05:10 6,1 C 6,1 C 92 % 1019,8 hPa 0,0 mm 1,6 km/h (1 Bft) NW 315 4,9 C 0,0 km/h (0 Bft)
26.10.2015 05:15 6,1 C 6,1 C 92 % 1019,8 hPa 0,0 mm 0,3 km/h (0 Bft) W-NW 292 4,9 C 0,0 km/h (0 Bft)
26.10.2015 05:20 6,1 C 6,1 C 92 % 1019,8 hPa 0,0 mm 0,0 km/h (0 Bft) W-NW 292 4,9 C 0,0 km/h (0 Bft)
26.10.2015 05:25 6,0 C 6,0 C 92 % 1019,8 hPa 0,0 mm 1,0 km/h (0 Bft) W-SW 247 4,8 C 4,4 km/h (1 Bft)
26.10.2015 05:30 5,9 C 5,9 C 93 % 1019,7 hPa 0,0 mm 1,8 km/h (1 Bft) S-SW 202 4,9 C 3,4 km/h (1 Bft)
26.10.2015 05:35 5,9 C 5,9 C 93 % 1019,7 hPa 0,0 mm 1,6 km/h (1 Bft) W 270 4,9 C 3,1 km/h (1 Bft)
26.10.2015 05:40 5,9 C 5,9 C 93 % 1019,7 hPa 0,0 mm 1,0 km/h (0 Bft) W-SW 247 4,9 C 4,4 km/h (1 Bft)
26.10.2015 05:45 5,7 C 5,7 C 93 % 1019,7 hPa 0,0 mm 2,6 km/h (1 Bft) W-SW 247 4,7 C 0,0 km/h (0 Bft)
26.10.2015 05:50 5,5 C 5,5 C 93 % 1019,4 hPa 0,0 mm 3,1 km/h (1 Bft) W-SW 247 4,5 C 8,3 km/h (2 Bft)
26.10.2015 05:55 5,5 C 5,4 C 93 % 1019,4 hPa 0,0 mm 1,6 km/h (1 Bft) W-SW 247 4,5 C 0,0 km/h (0 Bft)
26.10.2015 06:00 5,4 C 5,3 C 93 % 1019,4 hPa 0,0 mm 0,5 km/h (0 Bft) W-SW 247 4,4 C 0,0 km/h (0 Bft)
26.10.2015 06:05 5,2 C 5,1 C 93 % 1019,4 hPa 0,0 mm 0,0 km/h (0 Bft) S-SW 202 4,2 C 0,0 km/h (0 Bft)
26.10.2015 06:10 4,9 C 4,8 C 93 % 1018,8 hPa 0,0 mm 0,0 km/h (0 Bft) SW 225 3,9 C 0,0 km/h (0 Bft)
26.10.2015 06:15 4,6 C 4,5 C 93 % 1018,8 hPa 0,0 mm 0,0 km/h (0 Bft) S-SW 202 3,6 C 0,0 km/h (0 Bft)
26.10.2015 06:20 4,4 C 4,2 C 93 % 1018,8 hPa 0,0 mm 0,0 km/h (0 Bft) S-SW 202 3,4 C 0,0 km/h (0 Bft)
26.10.2015 06:25 4,1 C 3,9 C 92 % 1018,8 hPa 0,0 mm 0,0 km/h (0 Bft) S-SW 202 2,9 C 0,0 km/h (0 Bft)
26.10.2015 06:30 4,0 C 3,8 C 92 % 1019,1 hPa 0,0 mm 0,3 km/h (0 Bft) S-SW 202 2,8 C 2,6 km/h (1 Bft)
26.10.2015 06:35 3,8 C 3,6 C 93 % 1019,1 hPa 0,0 mm 0,3 km/h (0 Bft) SW 225 2,8 C 0,0 km/h (0 Bft)
26.10.2015 06:40 3,7 C 3,6 C 89 % 1019,1 hPa 0,0 mm 0,3 km/h (0 Bft) S-SW 202 2,1 C 0,0 km/h (0 Bft)
26.10.2015 06:45 3,7 C 3,6 C 89 % 1019,1 hPa 0,0 mm 0,0 km/h (0 Bft) S 180 2,1 C 2,6 km/h (1 Bft)
26.10.2015 06:50 3,7 C 3,6 C 89 % 1019,1 hPa 0,0 mm 1,0 km/h (0 Bft) SW 225 2,1 C 3,1 km/h (1 Bft)
26.10.2015 06:55 3,5 C 3,5 C 89 % 1019,1 hPa 0,0 mm 2,8 km/h (1 Bft) W-SW 247 1,9 C 3,6 km/h (1 Bft)
26.10.2015 07:00 3,7 C 3,6 C 93 % 1019,1 hPa 0,0 mm 2,8 km/h (1 Bft) SW 225 2,7 C 0,0 km/h (0 Bft)
26.10.2015 07:05 3,8 C 3,8 C 89 % 1019,1 hPa 0,0 mm 2,3 km/h (1 Bft) SW 225 2,2 C 2,6 km/h (1 Bft)
26.10.2015 07:10 3,9 C 3,9 C 89 % 1019,1 hPa 0,0 mm 1,6 km/h (1 Bft) S-SW 202 2,3 C 0,0 km/h (0 Bft)
26.10.2015 07:15 3,9 C 3,9 C 89 % 1019,1 hPa 0,0 mm 1,6 km/h (1 Bft) W-SW 247 2,3 C 3,4 km/h (1 Bft)
26.10.2015 07:20 3,8 C 3,9 C 89 % 1019,1 hPa 0,0 mm 2,6 km/h (1 Bft) SW 225 2,2 C 4,4 km/h (1 Bft)
26.10.2015 07:25 3,9 C 3,9 C 89 % 1019,1 hPa 0,0 mm 2,3 km/h (1 Bft) W-SW 247 2,3 C 0,0 km/h (0 Bft)
26.10.2015 07:30 3,8 C 3,7 C 93 % 1019,1 hPa 0,0 mm 1,3 km/h (1 Bft) SW 225 2,8 C 3,9 km/h (1 Bft)
26.10.2015 07:33 3,8 C 3,7 C 93 % 1019,1 hPa 0,0 mm 1,3 km/h (1 Bft) SW 225 2,8 C 3,9 km/h (1 Bft)
26.10.2015 07:35 3,7 C 3,6 C 93 % 1019,1 hPa 0,0 mm 1,3 km/h (1 Bft) W 270 2,7 C 0,0 km/h (0 Bft)
26.10.2015 07:40 3,6 C 3,5 C 93 % 1019,1 hPa 0,0 mm 1,3 km/h (1 Bft) W 270 2,6 C 0,0 km/h (0 Bft)
26.10.2015 07:45 3,5 C 3,6 C 89 % 1019,1 hPa 0,0 mm 0,0 km/h (0 Bft) W 270 1,9 C 0,0 km/h (0 Bft)
26.10.2015 07:50 3,7 C 3,7 C 89 % 1019,0 hPa 0,0 mm 0,3 km/h (0 Bft) W 270 2,1 C 0,0 km/h (0 Bft)
26.10.2015 07:55 3,8 C 3,9 C 89 % 1019,0 hPa 0,0 mm 0,3 km/h (0 Bft) W 270 2,2 C 0,0 km/h (0 Bft)
26.10.2015 08:00 3,8 C 3,9 C 89 % 1019,0 hPa 0,0 mm 0,3 km/h (0 Bft) W-NW 292 2,2 C 0,0 km/h (0 Bft)
26.10.2015 08:05 3,8 C 3,9 C 89 % 1019,0 hPa 0,0 mm 0,0 km/h (0 Bft) W-SW 247 2,2 C 0,0 km/h (0 Bft)
26.10.2015 08:10 3,7 C 3,8 C 89 % 1018,9 hPa 0,0 mm 0,0 km/h (0 Bft) SW 225 2,1 C 0,0 km/h (0 Bft)
26.10.2015 08:15 3,4 C 3,5 C 93 % 1018,9 hPa 0,0 mm 0,0 km/h (0 Bft) W-SW 247 2,4 C 0,0 km/h (0 Bft)
26.10.2015 08:20 3,3 C 3,3 C 93 % 1018,9 hPa 0,0 mm 0,0 km/h (0 Bft) W-SW 247 2,3 C 0,0 km/h (0 Bft)
26.10.2015 08:25 3,5 C 3,4 C 93 % 1018,9 hPa 0,0 mm 0,0 km/h (0 Bft) W-SW 247 2,5 C 0,0 km/h (0 Bft)
26.10.2015 08:30 3,5 C 3,4 C 93 % 1018,9 hPa 0,0 mm 0,0 km/h (0 Bft) W-SW 247 2,5 C 0,0 km/h (0 Bft)
26.10.2015 08:35 3,8 C 3,7 C 93 % 1018,9 hPa 0,0 mm 0,0 km/h (0 Bft) SW 225 2,8 C 0,0 km/h (0 Bft)
26.10.2015 08:40 3,9 C 3,9 C 89 % 1018,9 hPa 0,0 mm 0,0 km/h (0 Bft) SW 225 2,3 C 0,0 km/h (0 Bft)
26.10.2015 08:45 4,1 C 4,1 C 89 % 1018,9 hPa 0,0 mm 0,0 km/h (0 Bft) S-SW 202 2,5 C 0,0 km/h (0 Bft)
26.10.2015 08:50 4,4 C 4,4 C 89 % 1018,6 hPa 0,0 mm 0,0 km/h (0 Bft) W 270 2,7 C 0,0 km/h (0 Bft)
26.10.2015 08:55 4,8 C 4,8 C 89 % 1018,6 hPa 0,0 mm 0,0 km/h (0 Bft) S 180 3,1 C 0,0 km/h (0 Bft)
26.10.2015 09:00 4,9 C 4,9 C 94 % 1018,6 hPa 0,0 mm 0,0 km/h (0 Bft) W-SW 247 4,0 C 0,0 km/h (0 Bft)
26.10.2015 09:05 5,2 C 5,2 C 94 % 1018,6 hPa 0,0 mm 1,3 km/h (1 Bft) NW 315 4,3 C 4,4 km/h (1 Bft)
26.10.2015 09:10 5,4 C 5,4 C 94 % 1019,2 hPa 0,0 mm 3,1 km/h (1 Bft) NW 315 4,5 C 9,8 km/h (2 Bft)
26.10.2015 09:15 5,5 C 5,4 C 94 % 1019,2 hPa 0,0 mm 6,0 km/h (2 Bft) W-NW 292 4,6 C 5,7 km/h (1 Bft)
26.10.2015 09:20 5,6 C 5,7 C 89 % 1019,2 hPa 0,0 mm 6,2 km/h (2 Bft) NW 315 3,9 C 11,1 km/h (2 Bft)
26.10.2015 09:25 5,8 C 6,4 C 89 % 1019,2 hPa 0,0 mm 5,2 km/h (1 Bft) W 270 4,1 C 4,7 km/h (1 Bft)
26.10.2015 09:30 5,9 C 6,7 C 89 % 1019,3 hPa 0,0 mm 3,9 km/h (1 Bft) N-NO 22 4,2 C 0,0 km/h (0 Bft)
26.10.2015 09:35 6,0 C 7,1 C 89 % 1019,3 hPa 0,0 mm 2,6 km/h (1 Bft) W 270 4,3 C 0,0 km/h (0 Bft)
26.10.2015 09:40 6,1 C 7,2 C 89 % 1019,3 hPa 0,0 mm 3,1 km/h (1 Bft) NW 315 4,4 C 3,1 km/h (1 Bft)
26.10.2015 09:45 6,2 C 7,2 C 89 % 1019,3 hPa 0,0 mm 2,8 km/h (1 Bft) N-NO 22 4,5 C 4,4 km/h (1 Bft)
26.10.2015 09:50 6,3 C 7,3 C 89 % 1019,4 hPa 0,0 mm 2,8 km/h (1 Bft) W-NW 292 4,6 C 0,0 km/h (0 Bft)
26.10.2015 09:55 6,4 C 7,8 C 89 % 1019,4 hPa 0,0 mm 1,6 km/h (1 Bft) NW 315 4,7 C 0,0 km/h (0 Bft)
26.10.2015 10:00 6,6 C 8,1 C 89 % 1019,4 hPa 0,0 mm 0,8 km/h (0 Bft) W-NW 292 4,9 C 3,1 km/h (1 Bft)
26.10.2015 10:05 6,7 C 8,5 C 89 % 1019,4 hPa 0,0 mm 1,0 km/h (0 Bft) NW 315 5,0 C 4,9 km/h (1 Bft)
26.10.2015 10:10 6,8 C 8,7 C 89 % 1019,5 hPa 0,0 mm 1,6 km/h (1 Bft) SW 225 5,1 C 0,0 km/h (0 Bft)
26.10.2015 10:15 6,7 C 8,9 C 89 % 1019,5 hPa 0,0 mm 0,8 km/h (0 Bft) S-SO 157 5,0 C 0,0 km/h (0 Bft)
26.10.2015 10:20 6,9 C 9,3 C 89 % 1019,5 hPa 0,0 mm 0,0 km/h (0 Bft) W-NW 292 5,2 C 0,0 km/h (0 Bft)
26.10.2015 10:25 7,1 C 10,0 C 88 % 1019,5 hPa 0,0 mm 1,6 km/h (1 Bft) NW 315 5,2 C 3,9 km/h (1 Bft)
26.10.2015 10:30 7,1 C 10,3 C 88 % 1019,3 hPa 0,0 mm 2,6 km/h (1 Bft) W 270 5,2 C 4,4 km/h (1 Bft)
26.10.2015 10:35 7,3 C 11,6 C 88 % 1019,3 hPa 0,0 mm 1,6 km/h (1 Bft) S 180 5,4 C 0,0 km/h (0 Bft)
26.10.2015 10:40 7,4 C 13,7 C 88 % 1019,3 hPa 0,0 mm 0,5 km/h (0 Bft) N-NW 337 5,5 C 0,0 km/h (0 Bft)
26.10.2015 10:45 7,7 C 15,4 C 88 % 1019,3 hPa 0,0 mm 1,0 km/h (0 Bft) W 270 5,8 C 0,0 km/h (0 Bft)
26.10.2015 10:50 7,7 C 15,9 C 89 % 1019,7 hPa 0,0 mm 2,1 km/h (1 Bft) NW 315 6,0 C 6,0 km/h (2 Bft)
26.10.2015 10:55 8,3 C 16,0 C 88 % 1019,7 hPa 0,0 mm 3,1 km/h (1 Bft) NW 315 6,4 C 0,0 km/h (0 Bft)
26.10.2015 11:00 8,9 C 16,2 C 88 % 1019,7 hPa 0,0 mm 3,4 km/h (1 Bft) N-NO 22 7,0 C 2,8 km/h (1 Bft)
26.10.2015 11:05 8,8 C 16,9 C 88 % 1019,7 hPa 0,0 mm 1,8 km/h (1 Bft) W 270 6,9 C 2,8 km/h (1 Bft)
26.10.2015 11:10 9,1 C 17,2 C 88 % 1019,9 hPa 0,0 mm 2,1 km/h (1 Bft) W-SW 247 7,2 C 3,4 km/h (1 Bft)
26.10.2015 11:15 9,7 C 17,7 C 88 % 1019,9 hPa 0,0 mm 1,3 km/h (1 Bft) W-NW 292 7,8 C 2,6 km/h (1 Bft)
26.10.2015 11:20 9,8 C 17,7 C 88 % 1019,9 hPa 0,0 mm 0,5 km/h (0 Bft) NW 315 7,9 C 0,0 km/h (0 Bft)
26.10.2015 11:25 10,3 C 17,9 C 88 % 1019,9 hPa 0,0 mm 0,3 km/h (0 Bft) NW 315 8,4 C 0,0 km/h (0 Bft)
26.10.2015 11:30 9,9 C 17,5 C 87 % 1020,7 hPa 0,0 mm 0,0 km/h (0 Bft) SW 225 7,8 C 0,0 km/h (0 Bft)
26.10.2015 11:35 9,4 C 16,5 C 87 % 1020,7 hPa 0,0 mm 0,0 km/h (0 Bft) SW 225 7,3 C 0,0 km/h (0 Bft)
26.10.2015 11:40 9,4 C 15,6 C 87 % 1020,7 hPa 0,0 mm 0,5 km/h (0 Bft) NW 315 7,3 C 0,0 km/h (0 Bft)
26.10.2015 11:45 10,0 C 15,1 C 86 % 1020,7 hPa 0,0 mm 0,5 km/h (0 Bft) O-SO 112 7,8 C 0,0 km/h (0 Bft)
26.10.2015 11:50 10,0 C 15,1 C 86 % 1021,0 hPa 0,0 mm 0,0 km/h (0 Bft) SO 135 7,8 C 0,0 km/h (0 Bft)
26.10.2015 11:55 9,9 C 15,9 C 86 % 1021,0 hPa 0,0 mm 0,0 km/h (0 Bft) SW 225 7,7 C 0,0 km/h (0 Bft)
26.10.2015 12:00 9,9 C 16,9 C 85 % 1021,0 hPa 0,0 mm 0,5 km/h (0 Bft) N-NO 22 7,5 C 4,4 km/h (1 Bft)
26.10.2015 12:05 10,4 C 17,2 C 85 % 1021,0 hPa 0,0 mm 3,1 km/h (1 Bft) N 360 8,0 C 7,3 km/h (2 Bft)
26.10.2015 12:10 10,7 C 17,7 C 84 % 1021,5 hPa 0,0 mm 3,4 km/h (1 Bft) N-NO 22 8,1 C 0,0 km/h (0 Bft)
26.10.2015 12:15 10,8 C 18,6 C 83 % 1021,5 hPa 0,0 mm 1,3 km/h (1 Bft) N-NW 337 8,0 C 0,0 km/h (0 Bft)
26.10.2015 12:20 10,6 C 19,2 C 83 % 1021,5 hPa 0,0 mm 0,5 km/h (0 Bft) N-NO 22 7,8 C 0,0 km/h (0 Bft)
26.10.2015 12:25 10,9 C 19,2 C 83 % 1021,5 hPa 0,0 mm 2,6 km/h (1 Bft) NW 315 8,1 C 0,0 km/h (0 Bft)
26.10.2015 12:30 11,3 C 19,2 C 82 % 1021,4 hPa 0,0 mm 3,9 km/h (1 Bft) NW 315 8,3 C 12,4 km/h (3 Bft)
26.10.2015 12:35 11,5 C 18,7 C 82 % 1021,4 hPa 0,0 mm 4,9 km/h (1 Bft) N-NO 22 8,5 C 6,5 km/h (2 Bft)
26.10.2015 12:40 12,0 C 18,7 C 82 % 1021,4 hPa 0,0 mm 6,5 km/h (2 Bft) W-NW 292 9,0 C 14,5 km/h (3 Bft)
26.10.2015 12:45 12,7 C 18,8 C 81 % 1021,4 hPa 0,0 mm 4,9 km/h (1 Bft) N-NO 22 9,5 C 4,7 km/h (1 Bft)
26.10.2015 12:50 12,5 C 19,0 C 79 % 1021,9 hPa 0,0 mm 5,4 km/h (1 Bft) W 270 9,0 C 14,0 km/h (3 Bft)
26.10.2015 12:55 12,7 C 19,1 C 79 % 1021,9 hPa 0,0 mm 5,2 km/h (1 Bft) NW 315 9,2 C 2,6 km/h (1 Bft)
26.10.2015 13:00 12,9 C 19,4 C 78 % 1021,9 hPa 0,0 mm 4,4 km/h (1 Bft) N-NO 22 9,2 C 6,0 km/h (2 Bft)
26.10.2015 13:05 13,1 C 19,4 C 76 % 1021,9 hPa 0,0 mm 4,1 km/h (1 Bft) NW 315 9,0 C 4,1 km/h (1 Bft)
26.10.2015 13:10 13,7 C 19,7 C 77 % 1021,1 hPa 0,0 mm 3,9 km/h (1 Bft) W-NW 292 9,7 C 2,8 km/h (1 Bft)
26.10.2015 13:15 14,2 C 20,3 C 75 % 1021,1 hPa 0,0 mm 1,6 km/h (1 Bft) NO 45 9,8 C 0,0 km/h (0 Bft)
26.10.2015 13:20 13,9 C 20,5 C 74 % 1021,1 hPa 0,0 mm 1,6 km/h (1 Bft) O-SO 112 9,3 C 0,0 km/h (0 Bft)
26.10.2015 13:25 14,3 C 20,3 C 74 % 1021,1 hPa 0,0 mm 2,8 km/h (1 Bft) O-NO 67 9,7 C 8,3 km/h (2 Bft)
26.10.2015 13:30 13,9 C 19,6 C 72 % 1020,6 hPa 0,0 mm 4,7 km/h (1 Bft) SO 135 8,9 C 6,0 km/h (2 Bft)
26.10.2015 13:34 13,9 C 19,6 C 72 % 1020,6 hPa 0,0 mm 4,7 km/h (1 Bft) SO 135 8,9 C 6,0 km/h (2 Bft)
26.10.2015 13:35 14,0 C 19,0 C 71 % 1020,6 hPa 0,0 mm 6,2 km/h (2 Bft) SO 135 8,8 C 4,1 km/h (1 Bft)
26.10.2015 13:40 14,1 C 18,9 C 71 % 1020,6 hPa 0,0 mm 4,9 km/h (1 Bft) O 90 8,9 C 5,7 km/h (1 Bft)
26.10.2015 13:45 13,9 C 18,5 C 70 % 1020,6 hPa 0,0 mm 5,4 km/h (1 Bft) NO 45 8,5 C 8,8 km/h (2 Bft)
26.10.2015 13:50 13,8 C 18,2 C 69 % 1020,1 hPa 0,0 mm 6,0 km/h (2 Bft) O-NO 67 8,2 C 3,6 km/h (1 Bft)
26.10.2015 13:55 14,1 C 18,7 C 70 % 1020,1 hPa 0,0 mm 3,4 km/h (1 Bft) O 90 8,7 C 0,0 km/h (0 Bft)
26.10.2015 14:00 14,0 C 19,1 C 69 % 1020,1 hPa 0,0 mm 2,3 km/h (1 Bft) SO 135 8,4 C 2,8 km/h (1 Bft)
26.10.2015 14:05 14,2 C 19,3 C 69 % 1020,1 hPa 0,0 mm 2,3 km/h (1 Bft) SO 135 8,6 C 3,6 km/h (1 Bft)
26.10.2015 14:10 14,2 C 19,6 C 69 % 1019,8 hPa 0,0 mm 2,8 km/h (1 Bft) NO 45 8,6 C 7,3 km/h (2 Bft)
26.10.2015 14:15 14,1 C 19,1 C 69 % 1019,8 hPa 0,0 mm 3,1 km/h (1 Bft) SO 135 8,5 C 0,0 km/h (0 Bft)
26.10.2015 14:20 14,2 C 19,7 C 69 % 1019,8 hPa 0,0 mm 2,1 km/h (1 Bft) O-NO 67 8,6 C 0,0 km/h (0 Bft)
26.10.2015 14:25 13,9 C 19,8 C 69 % 1019,8 hPa 0,0 mm 1,8 km/h (1 Bft) O-NO 67 8,3 C 8,3 km/h (2 Bft)
26.10.2015 14:30 14,0 C 19,5 C 69 % 1019,8 hPa 0,0 mm 2,8 km/h (1 Bft) O 90 8,4 C 0,0 km/h (0 Bft)
26.10.2015 14:35 14,0 C 19,5 C 68 % 1019,8 hPa 0,0 mm 2,8 km/h (1 Bft) O-SO 112 8,2 C 0,0 km/h (0 Bft)
26.10.2015 14:40 14,2 C 19,3 C 68 % 1019,8 hPa 0,0 mm 2,1 km/h (1 Bft) SO 135 8,4 C 0,0 km/h (0 Bft)
26.10.2015 14:45 14,1 C 19,3 C 67 % 1019,8 hPa 0,0 mm 1,8 km/h (1 Bft) O-SO 112 8,1 C 0,0 km/h (0 Bft)
26.10.2015 14:50 13,9 C 19,4 C 66 % 1019,2 hPa 0,0 mm 1,8 km/h (1 Bft) O-SO 112 7,7 C 0,0 km/h (0 Bft)
26.10.2015 14:55 13,8 C 19,4 C 66 % 1019,2 hPa 0,0 mm 1,6 km/h (1 Bft) NO 45 7,6 C 4,1 km/h (1 Bft)
26.10.2015 15:00 13,8 C 19,3 C 65 % 1019,2 hPa 0,0 mm 1,0 km/h (0 Bft) O 90 7,3 C 0,0 km/h (0 Bft)
26.10.2015 15:05 13,1 C 19,5 C 66 % 1019,2 hPa 0,0 mm 1,3 km/h (1 Bft) NO 45 6,9 C 0,0 km/h (0 Bft)
26.10.2015 15:10 13,2 C 19,1 C 67 % 1019,2 hPa 0,0 mm 1,0 km/h (0 Bft) NO 45 7,2 C 0,0 km/h (0 Bft)
26.10.2015 15:15 13,4 C 19,1 C 67 % 1019,2 hPa 0,0 mm 0,3 km/h (0 Bft) O-SO 112 7,4 C 0,0 km/h (0 Bft)
26.10.2015 15:20 13,0 C 19,1 C 67 % 1019,2 hPa 0,0 mm 1,0 km/h (0 Bft) O-NO 67 7,0 C 2,8 km/h (1 Bft)
26.10.2015 15:25 12,5 C 17,8 C 68 % 1019,2 hPa 0,0 mm 1,3 km/h (1 Bft) SW 225 6,8 C 3,1 km/h (1 Bft)
26.10.2015 15:30 12,2 C 16,2 C 68 % 1018,8 hPa 0,0 mm 1,0 km/h (0 Bft) SO 135 6,5 C 3,9 km/h (1 Bft)
26.10.2015 15:35 11,9 C 14,3 C 69 % 1018,8 hPa 0,0 mm 1,6 km/h (1 Bft) O 90 6,4 C 2,6 km/h (1 Bft)
26.10.2015 15:40 11,9 C 13,4 C 69 % 1018,8 hPa 0,0 mm 1,0 km/h (0 Bft) O-SO 112 6,4 C 0,0 km/h (0 Bft)
26.10.2015 15:45 11,6 C 12,4 C 71 % 1018,8 hPa 0,0 mm 0,5 km/h (0 Bft) SO 135 6,5 C 0,0 km/h (0 Bft)
26.10.2015 15:50 11,4 C 11,9 C 71 % 1018,4 hPa 0,0 mm 0,0 km/h (0 Bft) O-SO 112 6,3 C 0,0 km/h (0 Bft)
26.10.2015 15:55 11,4 C 11,4 C 72 % 1018,4 hPa 0,0 mm 0,0 km/h (0 Bft) O-SO 112 6,5 C 0,0 km/h (0 Bft)
26.10.2015 16:00 11,2 C 11,2 C 73 % 1018,4 hPa 0,0 mm 0,0 km/h (0 Bft) SO 135 6,5 C 0,0 km/h (0 Bft)
26.10.2015 16:05 10,9 C 10,9 C 74 % 1018,4 hPa 0,0 mm 0,3 km/h (0 Bft) O-SO 112 6,5 C 0,0 km/h (0 Bft)
26.10.2015 16:10 10,9 C 10,8 C 74 % 1018,3 hPa 0,0 mm 0,3 km/h (0 Bft) SO 135 6,5 C 0,0 km/h (0 Bft)
26.10.2015 16:15 10,9 C 10,8 C 75 % 1018,3 hPa 0,0 mm 0,0 km/h (0 Bft) SW 225 6,6 C 0,0 km/h (0 Bft)
26.10.2015 16:20 10,7 C 10,6 C 76 % 1018,3 hPa 0,0 mm 0,0 km/h (0 Bft) SO 135 6,6 C 3,1 km/h (1 Bft)
26.10.2015 16:25 10,6 C 10,4 C 77 % 1018,3 hPa 0,0 mm 0,0 km/h (0 Bft) SO 135 6,7 C 0,0 km/h (0 Bft)
26.10.2015 16:30 10,4 C 10,3 C 77 % 1018,1 hPa 0,0 mm 0,0 km/h (0 Bft) S-SO 157 6,5 C 0,0 km/h (0 Bft)
26.10.2015 16:35 10,2 C 10,1 C 78 % 1018,1 hPa 0,0 mm 0,0 km/h (0 Bft) SO 135 6,5 C 0,0 km/h (0 Bft)
26.10.2015 16:40 10,0 C 9,9 C 78 % 1018,1 hPa 0,0 mm 0,0 km/h (0 Bft) S-SO 157 6,3 C 0,0 km/h (0 Bft)
26.10.2015 16:45 9,9 C 9,7 C 79 % 1018,1 hPa 0,0 mm 0,0 km/h (0 Bft) SO 135 6,4 C 0,0 km/h (0 Bft)
26.10.2015 16:50 9,6 C 9,4 C 79 % 1017,9 hPa 0,0 mm 0,0 km/h (0 Bft) O-SO 112 6,1 C 0,0 km/h (0 Bft)
26.10.2015 16:55 9,6 C 9,3 C 81 % 1017,9 hPa 0,0 mm 0,3 km/h (0 Bft) S-SO 157 6,5 C 0,0 km/h (0 Bft)
26.10.2015 17:00 9,4 C 9,1 C 82 % 1017,9 hPa 0,0 mm 0,5 km/h (0 Bft) O 90 6,5 C 3,1 km/h (1 Bft)
26.10.2015 17:05 9,2 C 9,0 C 82 % 1017,9 hPa 0,0 mm 1,3 km/h (1 Bft) SO 135 6,3 C 0,0 km/h (0 Bft)
26.10.2015 17:10 9,0 C 8,8 C 82 % 1017,9 hPa 0,0 mm 1,3 km/h (1 Bft) S 180 6,1 C 4,7 km/h (1 Bft)
26.10.2015 17:15 8,6 C 8,4 C 82 % 1017,9 hPa 0,0 mm 0,3 km/h (0 Bft) SO 135 5,7 C 0,0 km/h (0 Bft)
26.10.2015 17:20 8,6 C 8,4 C 83 % 1017,9 hPa 0,0 mm 0,3 km/h (0 Bft) S-SO 157 5,9 C 0,0 km/h (0 Bft)
26.10.2015 17:25 8,3 C 8,1 C 83 % 1017,9 hPa 0,0 mm 0,3 km/h (0 Bft) S-SO 157 5,6 C 0,0 km/h (0 Bft)
26.10.2015 17:30 8,2 C 8,0 C 83 % 1018,1 hPa 0,0 mm 0,3 km/h (0 Bft) S-SO 157 5,5 C 0,0 km/h (0 Bft)
26.10.2015 17:35 8,1 C 7,9 C 84 % 1018,1 hPa 0,0 mm 0,0 km/h (0 Bft) O-SO 112 5,6 C 0,0 km/h (0 Bft)
26.10.2015 17:40 7,9 C 7,7 C 84 % 1018,1 hPa 0,0 mm 0,3 km/h (0 Bft) S-SO 157 5,4 C 0,0 km/h (0 Bft)
26.10.2015 17:45 7,8 C 7,6 C 85 % 1018,1 hPa 0,0 mm 0,3 km/h (0 Bft) O-SO 112 5,4 C 0,0 km/h (0 Bft)
26.10.2015 17:50 7,6 C 7,4 C 85 % 1018,1 hPa 0,0 mm 0,0 km/h (0 Bft) SO 135 5,2 C 0,0 km/h (0 Bft)
26.10.2015 17:55 7,6 C 7,4 C 85 % 1018,1 hPa 0,0 mm 0,3 km/h (0 Bft) O 90 5,2 C 0,0 km/h (0 Bft)
26.10.2015 18:00 7,6 C 7,4 C 86 % 1018,1 hPa 0,0 mm 0,3 km/h (0 Bft) N-NW 337 5,4 C 0,0 km/h (0 Bft)
26.10.2015 18:05 7,3 C 7,2 C 86 % 1018,1 hPa 0,0 mm 0,0 km/h (0 Bft) S 180 5,1 C 4,4 km/h (1 Bft)
26.10.2015 18:10 7,3 C 7,1 C 86 % 1018,2 hPa 0,0 mm 0,3 km/h (0 Bft) SO 135 5,1 C 0,0 km/h (0 Bft)
26.10.2015 18:15 7,2 C 7,0 C 86 % 1018,2 hPa 0,0 mm 0,5 km/h (0 Bft) O-NO 67 5,0 C 2,8 km/h (1 Bft)
26.10.2015 18:20 7,0 C 6,9 C 86 % 1018,2 hPa 0,0 mm 0,0 km/h (0 Bft) SW 225 4,8 C 0,0 km/h (0 Bft)
26.10.2015 18:25 7,0 C 6,8 C 87 % 1018,2 hPa 0,0 mm 0,5 km/h (0 Bft) SO 135 5,0 C 3,9 km/h (1 Bft)
26.10.2015 18:30 7,0 C 6,8 C 87 % 1018,2 hPa 0,0 mm 0,5 km/h (0 Bft) S 180 5,0 C 0,0 km/h (0 Bft)
26.10.2015 18:35 6,9 C 6,7 C 87 % 1018,2 hPa 0,0 mm 1,0 km/h (0 Bft) S 180 4,9 C 3,4 km/h (1 Bft)
26.10.2015 18:40 6,9 C 6,8 C 88 % 1018,2 hPa 0,0 mm 1,8 km/h (1 Bft) O-NO 67 5,1 C 3,4 km/h (1 Bft)
26.10.2015 18:45 6,7 C 6,6 C 88 % 1018,2 hPa 0,0 mm 1,3 km/h (1 Bft) O-SO 112 4,9 C 0,0 km/h (0 Bft)
26.10.2015 18:50 6,6 C 6,5 C 88 % 1018,3 hPa 0,0 mm 0,3 km/h (0 Bft) SO 135 4,8 C 0,0 km/h (0 Bft)
26.10.2015 18:55 6,5 C 6,4 C 88 % 1018,3 hPa 0,0 mm 0,3 km/h (0 Bft) O 90 4,7 C 0,0 km/h (0 Bft)
26.10.2015 19:00 6,4 C 6,3 C 88 % 1018,3 hPa 0,0 mm 0,8 km/h (0 Bft) O-SO 112 4,6 C 0,0 km/h (0 Bft)
26.10.2015 19:05 6,4 C 6,3 C 88 % 1018,3 hPa 0,0 mm 0,5 km/h (0 Bft) O 90 4,6 C 0,0 km/h (0 Bft)
26.10.2015 19:10 6,3 C 6,2 C 88 % 1018,2 hPa 0,0 mm 0,3 km/h (0 Bft) O-SO 112 4,5 C 0,0 km/h (0 Bft)
26.10.2015 19:15 6,3 C 6,1 C 88 % 1018,2 hPa 0,0 mm 0,0 km/h (0 Bft) SO 135 4,5 C 0,0 km/h (0 Bft)
26.10.2015 19:20 6,4 C 6,2 C 89 % 1018,2 hPa 0,0 mm 0,3 km/h (0 Bft) O 90 4,7 C 3,4 km/h (1 Bft)
26.10.2015 19:25 6,3 C 6,2 C 89 % 1018,2 hPa 0,0 mm 0,3 km/h (0 Bft) SO 135 4,6 C 0,0 km/h (0 Bft)
26.10.2015 19:30 6,1 C 6,0 C 89 % 1018,1 hPa 0,0 mm 0,3 km/h (0 Bft) SO 135 4,4 C 0,0 km/h (0 Bft)
26.10.2015 19:34 6,2 C 6,0 C 89 % 1018,1 hPa 0,0 mm 0,0 km/h (0 Bft) S-SO 157 4,5 C 0,0 km/h (0 Bft)
26.10.2015 19:35 6,2 C 6,0 C 89 % 1018,1 hPa 0,0 mm 0,0 km/h (0 Bft) S-SO 157 4,5 C 0,0 km/h (0 Bft)
26.10.2015 19:40 6,1 C 5,9 C 89 % 1018,1 hPa 0,0 mm 0,0 km/h (0 Bft) SO 135 4,4 C 0,0 km/h (0 Bft)
26.10.2015 19:45 5,7 C 5,6 C 89 % 1018,1 hPa 0,0 mm 0,0 km/h (0 Bft) S-SO 157 4,0 C 0,0 km/h (0 Bft)
26.10.2015 19:50 5,4 C 5,5 C 89 % 1017,8 hPa 0,0 mm 0,0 km/h (0 Bft) S-SO 157 3,7 C 0,0 km/h (0 Bft)
26.10.2015 19:55 5,4 C 5,4 C 89 % 1017,8 hPa 0,0 mm 0,0 km/h (0 Bft) S-SO 157 3,7 C 0,0 km/h (0 Bft)
26.10.2015 20:00 5,6 C 5,5 C 89 % 1017,8 hPa 0,0 mm 0,0 km/h (0 Bft) S-SO 157 3,9 C 0,0 km/h (0 Bft)
26.10.2015 20:05 5,8 C 5,7 C 89 % 1017,8 hPa 0,0 mm 0,0 km/h (0 Bft) S-SO 157 4,1 C 0,0 km/h (0 Bft)
26.10.2015 20:10 5,8 C 5,7 C 89 % 1017,7 hPa 0,0 mm 0,0 km/h (0 Bft) S-SO 157 4,1 C 0,0 km/h (0 Bft)
26.10.2015 20:15 5,6 C 5,6 C 89 % 1017,7 hPa 0,0 mm 0,0 km/h (0 Bft) NO 45 3,9 C 0,0 km/h (0 Bft)
26.10.2015 20:20 5,7 C 5,8 C 90 % 1017,7 hPa 0,0 mm 0,0 km/h (0 Bft) O 90 4,2 C 0,0 km/h (0 Bft)
26.10.2015 20:25 5,7 C 5,9 C 90 % 1017,7 hPa 0,0 mm 0,0 km/h (0 Bft) O 90 4,2 C 0,0 km/h (0 Bft)
26.10.2015 20:30 5,7 C 6,0 C 90 % 1017,7 hPa 0,0 mm 0,0 km/h (0 Bft) S-SO 157 4,2 C 0,0 km/h (0 Bft)
26.10.2015 20:35 5,6 C 6,1 C 90 % 1017,7 hPa 0,0 mm 0,0 km/h (0 Bft) S-SO 157 4,1 C 0,0 km/h (0 Bft)
26.10.2015 20:40 5,7 C 6,2 C 90 % 1017,7 hPa 0,0 mm 0,0 km/h (0 Bft) S-SO 157 4,2 C 0,0 km/h (0 Bft)
26.10.2015 20:45 6,4 C 6,5 C 86 % 1017,7 hPa 0,0 mm 0,0 km/h (0 Bft) S-SO 157 4,2 C 0,0 km/h (0 Bft)
26.10.2015 20:50 6,5 C 6,6 C 86 % 1017,6 hPa 0,0 mm 0,0 km/h (0 Bft) S-SO 157 4,3 C 0,0 km/h (0 Bft)
26.10.2015 20:55 6,3 C 6,6 C 90 % 1017,6 hPa 0,0 mm 0,8 km/h (0 Bft) SW 225 4,8 C 7,0 km/h (2 Bft)
26.10.2015 21:00 6,2 C 6,5 C 90 % 1017,6 hPa 0,0 mm 2,3 km/h (1 Bft) S-SW 202 4,7 C 2,6 km/h (1 Bft)
26.10.2015 21:05 5,9 C 6,2 C 91 % 1017,6 hPa 0,0 mm 2,3 km/h (1 Bft) S-SW 202 4,5 C 0,0 km/h (0 Bft)
26.10.2015 21:10 5,6 C 5,8 C 91 % 1017,6 hPa 0,0 mm 0,5 km/h (0 Bft) S 180 4,2 C 0,0 km/h (0 Bft)
26.10.2015 21:15 5,4 C 5,4 C 91 % 1017,6 hPa 0,0 mm 0,0 km/h (0 Bft) S 180 4,1 C 0,0 km/h (0 Bft)
26.10.2015 21:20 5,3 C 5,3 C 91 % 1017,6 hPa 0,0 mm 0,3 km/h (0 Bft) S 180 4,0 C 2,8 km/h (1 Bft)
26.10.2015 21:25 5,1 C 5,0 C 91 % 1017,6 hPa 0,0 mm 0,5 km/h (0 Bft) S 180 3,8 C 3,1 km/h (1 Bft)
26.10.2015 21:30 4,7 C 4,7 C 91 % 1017,4 hPa 0,0 mm 0,5 km/h (0 Bft) S-SO 157 3,4 C 0,0 km/h (0 Bft)
26.10.2015 21:35 4,6 C 4,4 C 91 % 1017,4 hPa 0,0 mm 0,3 km/h (0 Bft) SW 225 3,3 C 0,0 km/h (0 Bft)
26.10.2015 21:40 4,5 C 4,3 C 91 % 1017,4 hPa 0,0 mm 0,0 km/h (0 Bft) S-SO 157 3,2 C 0,0 km/h (0 Bft)
26.10.2015 21:45 4,3 C 4,1 C 91 % 1017,4 hPa 0,0 mm 0,0 km/h (0 Bft) S 180 3,0 C 0,0 km/h (0 Bft)
26.10.2015 21:50 4,3 C 4,1 C 91 % 1017,4 hPa 0,0 mm 0,0 km/h (0 Bft) S 180 3,0 C 0,0 km/h (0 Bft)
26.10.2015 21:55 4,3 C 4,0 C 91 % 1017,4 hPa 0,0 mm 0,0 km/h (0 Bft) SW 225 3,0 C 0,0 km/h (0 Bft)
26.10.2015 22:00 4,2 C 3,8 C 91 % 1017,4 hPa 0,0 mm 0,0 km/h (0 Bft) S-SW 202 2,9 C 0,0 km/h (0 Bft)
26.10.2015 22:05 3,5 C 3,3 C 91 % 1017,4 hPa 0,0 mm 0,0 km/h (0 Bft) W-SW 247 2,2 C 0,0 km/h (0 Bft)
26.10.2015 22:10 3,5 C 3,3 C 91 % 1017,5 hPa 0,0 mm 0,0 km/h (0 Bft) W-SW 247 2,2 C 0,0 km/h (0 Bft)
26.10.2015 22:15 3,4 C 3,2 C 91 % 1017,5 hPa 0,0 mm 0,0 km/h (0 Bft) S 180 2,1 C 0,0 km/h (0 Bft)
26.10.2015 22:20 3,4 C 3,2 C 91 % 1017,5 hPa 0,0 mm 0,0 km/h (0 Bft) S 180 2,1 C 0,0 km/h (0 Bft)
26.10.2015 22:25 3,4 C 3,1 C 91 % 1017,5 hPa 0,0 mm 0,0 km/h (0 Bft) S-SW 202 2,1 C 0,0 km/h (0 Bft)
26.10.2015 22:30 3,5 C 3,4 C 88 % 1017,5 hPa 0,0 mm 0,0 km/h (0 Bft) S 180 1,7 C 0,0 km/h (0 Bft)
26.10.2015 22:35 3,3 C 3,1 C 92 % 1017,5 hPa 0,0 mm 0,0 km/h (0 Bft) SO 135 2,1 C 0,0 km/h (0 Bft)
26.10.2015 22:40 3,0 C 2,8 C 92 % 1017,5 hPa 0,0 mm 0,0 km/h (0 Bft) S-SO 157 1,8 C 0,0 km/h (0 Bft)
26.10.2015 22:45 2,7 C 2,6 C 93 % 1017,5 hPa 0,0 mm 0,0 km/h (0 Bft) SO 135 1,7 C 0,0 km/h (0 Bft)
26.10.2015 22:50 2,7 C 2,6 C 93 % 1017,6 hPa 0,0 mm 0,0 km/h (0 Bft) SO 135 1,7 C 0,0 km/h (0 Bft)
26.10.2015 22:55 3,4 C 3,1 C 88 % 1017,6 hPa 0,0 mm 0,0 km/h (0 Bft) SO 135 1,6 C 0,0 km/h (0 Bft)
26.10.2015 23:00 3,5 C 3,1 C 92 % 1017,6 hPa 0,0 mm 0,0 km/h (0 Bft) S-SW 202 2,3 C 0,0 km/h (0 Bft)
26.10.2015 23:05 2,9 C 2,7 C 93 % 1017,6 hPa 0,0 mm 0,0 km/h (0 Bft) S-SW 202 1,9 C 0,0 km/h (0 Bft)
26.10.2015 23:10 2,6 C 2,5 C 93 % 1017,4 hPa 0,0 mm 0,0 km/h (0 Bft) S-SW 202 1,6 C 0,0 km/h (0 Bft)
26.10.2015 23:15 2,4 C 2,2 C 93 % 1017,4 hPa 0,0 mm 0,0 km/h (0 Bft) S-SW 202 1,4 C 0,0 km/h (0 Bft)
26.10.2015 23:20 2,4 C 2,1 C 93 % 1017,4 hPa 0,0 mm 0,0 km/h (0 Bft) S-SW 202 1,4 C 0,0 km/h (0 Bft)
26.10.2015 23:25 2,0 C 1,8 C 93 % 1017,4 hPa 0,0 mm 0,0 km/h (0 Bft) SW 225 1,0 C 0,0 km/h (0 Bft)
26.10.2015 23:30 2,3 C 2,0 C 93 % 1017,4 hPa 0,0 mm 0,0 km/h (0 Bft) SW 225 1,3 C 0,0 km/h (0 Bft)
26.10.2015 23:35 2,0 C 1,8 C 93 % 1017,4 hPa 0,0 mm 0,0 km/h (0 Bft) SW 225 1,0 C 0,0 km/h (0 Bft)
26.10.2015 23:40 1,8 C 1,6 C 93 % 1017,4 hPa 0,0 mm 0,0 km/h (0 Bft) SW 225 0,8 C 0,0 km/h (0 Bft)
26.10.2015 23:45 1,7 C 1,4 C 93 % 1017,4 hPa 0,0 mm 0,0 km/h (0 Bft) SW 225 0,7 C 0,0 km/h (0 Bft)
26.10.2015 23:50 1,9 C 1,6 C 93 % 1017,1 hPa 0,0 mm 0,0 km/h (0 Bft) SW 225 0,9 C 0,0 km/h (0 Bft)
26.10.2015 23:55 1,8 C 1,5 C 93 % 1017,1 hPa 0,0 mm 0,0 km/h (0 Bft) SW 225 0,8 C 0,0 km/h (0 Bft)
_ Min-Zeit 23:45 23:45 15:00 23:55 - 23:55 - - 23:45 23:55
Minimum _ 1,7 C 1,4 C 65 % 1017,1 hPa - 0,0 km/h (0 Bft) - - 0,7 C 0,0 km/h (0 Bft)
_ Max-Zeit 13:25 13:20 09:15 00:05 23:55 12:40 - - 13:15 12:40
Maximum _ 14,3 C 20,5 C 94 % 1022,5 hPa 0,0 mm 6,5 km/h
W-NW (2 Bft)
- - 9,8 C 14,5 km/h
W-NW (3 Bft)
Durchschnitt _ 7,2 C 8,6 C 86 % 1019,4 hPa #0,0 mm 1,0 km/h (0 Bft) NW - 5,0 C 1,3 km/h (1 Bft)